�������l�o���
Date,Time,MP-1(��Sv/h),MP-2(��Sv/h),MP-3(��Sv/h),MP-4(��Sv/h),MP-5(��Sv/h),MP-6(��Sv/h),MP-7(��Sv/h),����,����(m/s),���J
2015/04/30,00:00,0.548,0.336,0.587,0.543,0.482,0.254,0.231,��쐼,6.5,��
2015/04/30,00:10,0.548,0.335,0.584,0.545,0.477,0.256,0.230,��쐼,5.3,��
2015/04/30,00:20,0.548,0.338,0.587,0.543,0.480,0.256,0.230,��쐼,4.7,��
2015/04/30,00:30,0.546,0.336,0.585,0.545,0.479,0.255,0.230,��쐼,4.8,��
2015/04/30,00:40,0.549,0.336,0.586,0.541,0.481,0.256,0.229,��쐼,4.8,��
2015/04/30,00:50,0.548,0.336,0.587,0.545,0.479,0.256,0.230,��쐼,4.2,��
2015/04/30,01:00,0.549,0.335,0.583,0.543,0.479,0.256,0.230,��쐼,3.9,��
2015/04/30,01:10,0.547,0.337,0.586,0.543,0.482,0.256,0.230,��쐼,3.1,��
2015/04/30,01:20,0.550,0.335,0.587,0.544,0.479,0.256,0.231,��쐼,2.5,��
2015/04/30,01:30,0.549,0.338,0.588,0.542,0.480,0.255,0.231,��쐼,2.5,��
2015/04/30,01:40,0.548,0.337,0.587,0.546,0.479,0.255,0.230,��쐼,2.9,��
2015/04/30,01:50,0.551,0.336,0.587,0.544,0.478,0.255,0.231,��쐼,2.7,��
2015/04/30,02:00,0.548,0.338,0.587,0.546,0.481,0.256,0.232,��쐼,2.2,��
2015/04/30,02:10,0.550,0.336,0.585,0.546,0.477,0.256,0.229,��쐼,2.7,��
2015/04/30,02:20,0.549,0.337,0.589,0.544,0.479,0.255,0.231,�쐼,3.2,��
2015/04/30,02:30,0.547,0.338,0.584,0.547,0.479,0.256,0.232,�쐼,2.5,��
2015/04/30,02:40,0.552,0.336,0.587,0.542,0.478,0.256,0.231,���쐼,2.7,��
2015/04/30,02:50,0.548,0.336,0.587,0.545,0.479,0.257,0.230,�쐼,1.5,��
2015/04/30,03:00,0.551,0.336,0.586,0.542,0.477,0.256,0.229,�쐼,1.5,��
2015/04/30,03:10,0.547,0.336,0.588,0.544,0.479,0.256,0.231,�쐼,1.5,��
2015/04/30,03:20,0.549,0.338,0.585,0.545,0.477,0.256,0.231,�쐼,1.7,��
2015/04/30,03:30,0.548,0.336,0.587,0.543,0.479,0.255,0.231,���쐼,2.0,��
2015/04/30,03:40,0.549,0.337,0.585,0.546,0.480,0.256,0.230,�쐼,2.2,��
2015/04/30,03:50,0.549,0.338,0.587,0.543,0.478,0.255,0.231,���쐼,1.5,��
2015/04/30,04:00,0.547,0.335,0.586,0.544,0.480,0.256,0.231,�쐼,1.1,��
2015/04/30,04:10,0.551,0.337,0.585,0.546,0.477,0.255,0.231,�쐼,1.3,��
2015/04/30,04:20,0.547,0.335,0.588,0.543,0.478,0.256,0.230,�쐼,2.2,��
2015/04/30,04:30,0.547,0.336,0.586,0.544,0.480,0.255,0.230,���쐼,3.1,��
2015/04/30,04:40,0.549,0.337,0.587,0.545,0.478,0.256,0.230,��,3.3,��
2015/04/30,04:50,0.545,0.337,0.586,0.543,0.478,0.256,0.231,���k��,2.8,��
2015/04/30,05:00,0.549,0.335,0.586,0.546,0.477,0.256,0.231,�k��,1.9,��
2015/04/30,05:10,0.548,0.337,0.589,0.543,0.478,0.257,0.232,�k,1.7,��
2015/04/30,05:20,0.547,0.335,0.586,0.546,0.480,0.256,0.231,�k�k��,1.7,��
2015/04/30,05:30,0.549,0.337,0.587,0.545,0.478,0.256,0.232,�k�k��,1.3,��
2015/04/30,05:40,0.547,0.335,0.585,0.543,0.478,0.256,0.230,�k�k��,1.9,��
2015/04/30,05:50,0.549,0.335,0.584,0.546,0.478,0.256,0.229,�k��,1.6,��
2015/04/30,06:00,0.548,0.336,0.588,0.544,0.476,0.255,0.230,�k��,1.6,��
2015/04/30,06:10,0.550,0.335,0.585,0.543,0.478,0.256,0.229,�k��,2.8,��
2015/04/30,06:20,0.548,0.335,0.586,0.545,0.475,0.256,0.230,�k��,2.5,��
2015/04/30,06:30,0.548,0.338,0.587,0.541,0.478,0.255,0.231,�k�k��,2.1,��
2015/04/30,06:40,0.549,0.334,0.585,0.545,0.477,0.255,0.231,�k��,3.2,��
2015/04/30,06:50,0.545,0.337,0.589,0.540,0.478,0.255,0.230,�k�k��,2.7,��
2015/04/30,07:00,0.550,0.334,0.583,0.544,0.478,0.255,0.231,�k�k��,2.3,��
2015/04/30,07:10,0.549,0.335,0.586,0.542,0.477,0.255,0.230,�k,2.1,��
2015/04/30,07:20,0.547,0.336,0.583,0.544,0.481,0.256,0.231,�k�k��,2.4,��
2015/04/30,07:30,0.550,0.336,0.587,0.539,0.477,0.256,0.230,�k,2.3,��
2015/04/30,07:40,0.545,0.333,0.580,0.543,0.482,0.257,0.229,�k�k��,2.1,��
2015/04/30,07:50,0.549,0.334,0.587,0.538,0.477,0.256,0.230,�k�k��,1.1,��
2015/04/30,08:00,0.545,0.333,0.583,0.538,0.481,0.257,0.230,�k�k��,2.0,��
2015/04/30,08:10,0.549,0.336,0.587,0.544,0.476,0.255,0.230,�k,2.7,��
2015/04/30,08:20,0.545,0.334,0.583,0.537,0.480,0.256,0.230,�k,2.2,��
2015/04/30,08:30,0.549,0.336,0.589,0.543,0.478,0.255,0.231,�k,1.2,��
2015/04/30,08:40,0.544,0.335,0.583,0.543,0.477,0.254,0.229,�k�k��,0.6,��
2015/04/30,08:50,0.548,0.336,0.591,0.539,0.480,0.255,0.231,-,CALM,��
2015/04/30,09:00,0.545,0.335,0.582,0.546,0.475,0.254,0.230,�k�k��,0.7,��
2015/04/30,09:10,0.548,0.335,0.591,0.542,0.479,0.255,0.231,�k�k��,0.7,��
2015/04/30,09:20,0.545,0.336,0.581,0.538,0.479,0.254,0.231,-,CALM,��
2015/04/30,09:30,0.547,0.333,0.587,0.547,0.473,0.255,0.229,���k��,0.9,��
2015/04/30,09:40,0.543,0.335,0.582,0.544,0.480,0.255,0.231,��,0.9,��
2015/04/30,09:50,0.548,0.333,0.589,0.540,0.480,0.254,0.229,��쓌,0.6,��
2015/04/30,10:00,0.544,0.335,0.583,0.545,0.474,0.256,0.231,�쓌,0.5,��
2015/04/30,10:10,0.550,0.333,0.586,0.545,0.480,0.254,0.230,��,1.9,��
2015/04/30,10:20,0.545,0.336,0.584,0.537,0.479,0.255,0.231,��,1.8,��
2015/04/30,10:30,0.549,0.335,0.580,0.544,0.475,0.254,0.231,��,3.1,��
2015/04/30,10:40,0.549,0.336,0.586,0.545,0.478,0.254,0.231,��,3.6,��
2015/04/30,10:50,0.545,0.336,0.585,0.539,0.480,0.255,0.231,��,4.5,��
2015/04/30,11:00,0.548,0.334,0.579,0.538,0.477,0.253,0.230,��,4.9,��
2015/04/30,11:10,0.545,0.336,0.584,0.546,0.474,0.255,0.231,��쓌,5.7,��
2015/04/30,11:20,0.552,0.335,0.588,0.547,0.476,0.255,0.230,��쓌,6.3,��
2015/04/30,11:30,0.544,0.335,0.585,0.540,0.482,0.254,0.231,��,2.9,��
2015/04/30,11:40,0.551,0.337,0.580,0.538,0.479,0.255,0.230,�쓌,0.6,��
2015/04/30,11:50,0.546,0.335,0.579,0.542,0.477,0.255,0.231,��,3.6,��
2015/04/30,12:00,0.548,0.337,0.586,0.545,0.474,0.255,0.229,��,0.6,��
2015/04/30,12:10,0.549,0.335,0.587,0.540,0.483,0.255,0.231,��쐼,0.7,��
2015/04/30,12:20,0.546,0.332,0.583,0.540,0.477,0.256,0.230,���쐼,0.7,��
2015/04/30,12:30,0.551,0.335,0.578,0.549,0.476,0.256,0.229,-,CALM,��
2015/04/30,12:40,0.546,0.337,0.581,0.546,0.472,0.254,0.230,��,0.7,��
2015/04/30,12:50,0.546,0.334,0.590,0.542,0.474,0.256,0.231,��쓌,4.6,��
2015/04/30,13:00,0.550,0.331,0.589,0.538,0.481,0.255,0.228,��쓌,4.3,��
2015/04/30,13:10,0.544,0.331,0.585,0.537,0.481,0.255,0.232,��쓌,0.7,��
2015/04/30,13:20,0.547,0.335,0.582,0.540,0.478,0.255,0.230,��쓌,3.6,��
2015/04/30,13:30,0.550,0.337,0.581,0.547,0.476,0.255,0.229,��,3.9,��
2015/04/30,13:40,0.546,0.335,0.581,0.546,0.475,0.255,0.232,��쓌,2.4,��
2015/04/30,13:50,0.545,0.335,0.580,0.541,0.475,0.255,0.230,��,5.4,��
2015/04/30,14:00,0.550,0.337,0.580,0.539,0.478,0.254,0.229,��쓌,4.6,��
2015/04/30,14:10,0.547,0.338,0.590,0.546,0.482,0.256,0.231,��,6.6,��
2015/04/30,14:20,0.543,0.336,0.588,0.548,0.482,0.255,0.231,��쓌,2.8,��
2015/04/30,14:30,0.546,0.333,0.586,0.543,0.479,0.254,0.229,��,4.7,��
2015/04/30,14:40,0.554,0.337,0.582,0.541,0.476,0.254,0.229,��,6.4,��
2015/04/30,14:50,0.547,0.337,0.583,0.545,0.475,0.256,0.230,��,6.7,��
2015/04/30,15:00,0.544,0.335,0.589,0.548,0.476,0.255,0.228,��쓌,5.6,��
2015/04/30,15:10,0.554,0.334,0.591,0.543,0.481,0.254,0.231,��,6.7,��
2015/04/30,15:20,0.548,0.336,0.587,0.548,0.481,0.254,0.230,��쓌,5.8,��
2015/04/30,15:30,0.547,0.335,0.582,0.547,0.479,0.256,0.229,��,7.3,��
2015/04/30,15:40,0.552,0.334,0.591,0.544,0.476,0.255,0.231,��,6.8,��
2015/04/30,15:50,0.548,0.339,0.590,0.551,0.474,0.255,0.230,��,7.4,��
2015/04/30,16:00,0.548,0.336,0.586,0.544,0.481,0.256,0.232,��,7.2,��
2015/04/30,16:10,0.555,0.337,0.594,0.547,0.483,0.256,0.230,��,7.5,��
2015/04/30,16:20,0.547,0.338,0.589,0.545,0.478,0.254,0.232,��,8.9,��
2015/04/30,16:30,0.548,0.338,0.589,0.545,0.483,0.255,0.231,��,8.8,��
2015/04/30,16:40,0.550,0.337,0.590,0.547,0.486,0.255,0.232,��,9.4,��
2015/04/30,16:50,0.547,0.337,0.585,0.544,0.479,0.255,0.229,��,10.1,��
2015/04/30,17:00,0.553,0.338,0.594,0.547,0.481,0.255,0.232,��,10.0,��
2015/04/30,17:10,0.547,0.335,0.585,0.542,0.482,0.254,0.230,��,8.8,��
2015/04/30,17:20,0.547,0.338,0.590,0.548,0.477,0.255,0.231,��,9.2,��
2015/04/30,17:30,0.550,0.337,0.591,0.541,0.481,0.255,0.230,��,9.4,��
2015/04/30,17:40,0.545,0.338,0.585,0.547,0.482,0.256,0.232,��,9.3,��
2015/04/30,17:50,0.553,0.336,0.590,0.545,0.478,0.255,0.230,��,8.9,��
2015/04/30,18:00,0.548,0.337,0.585,0.545,0.485,0.255,0.230,��,8.3,��
2015/04/30,18:10,0.550,0.339,0.592,0.545,0.477,0.257,0.230,��,8.6,��
2015/04/30,18:20,0.550,0.334,0.586,0.543,0.483,0.254,0.231,��,8.1,��
2015/04/30,18:30,0.545,0.337,0.587,0.548,0.480,0.256,0.230,��,7.7,��
2015/04/30,18:40,0.551,0.337,0.589,0.542,0.482,0.255,0.231,��쐼,7.6,��
2015/04/30,18:50,0.548,0.338,0.587,0.548,0.481,0.257,0.230,��쐼,7.8,��
2015/04/30,19:00,0.551,0.336,0.591,0.544,0.481,0.255,0.231,��쐼,8.1,��
2015/04/30,19:10,0.547,0.336,0.585,0.549,0.481,0.255,0.231,��쐼,7.8,��
2015/04/30,19:20,0.553,0.338,0.592,0.542,0.481,0.255,0.231,��쐼,8.9,��
2015/04/30,19:30,0.546,0.338,0.586,0.549,0.480,0.256,0.230,��쐼,8.7,��
2015/04/30,19:40,0.553,0.338,0.590,0.542,0.478,0.254,0.230,��쐼,8.9,��
2015/04/30,19:50,0.546,0.335,0.586,0.548,0.479,0.256,0.232,��쐼,8.5,��
2015/04/30,20:00,0.553,0.337,0.590,0.542,0.479,0.255,0.230,��쐼,8.8,��
2015/04/30,20:10,0.547,0.335,0.584,0.548,0.480,0.254,0.232,��쐼,8.9,��
2015/04/30,20:20,0.553,0.337,0.593,0.544,0.481,0.256,0.230,��쐼,8.7,��
2015/04/30,20:30,0.547,0.337,0.584,0.547,0.480,0.256,0.231,��쐼,7.6,��
2015/04/30,20:40,0.552,0.336,0.592,0.544,0.480,0.255,0.230,��쐼,7.6,��
2015/04/30,20:50,0.546,0.335,0.585,0.545,0.480,0.256,0.231,��쐼,6.7,��
2015/04/30,21:00,0.552,0.337,0.589,0.543,0.481,0.255,0.231,��쐼,7.9,��
2015/04/30,21:10,0.547,0.337,0.586,0.547,0.480,0.256,0.231,��쐼,7.3,��
2015/04/30,21:20,0.551,0.336,0.589,0.544,0.481,0.256,0.231,��쐼,6.9,��
2015/04/30,21:30,0.548,0.337,0.586,0.546,0.478,0.255,0.229,��쐼,6.7,��
2015/04/30,21:40,0.552,0.337,0.590,0.544,0.482,0.256,0.231,��쐼,7.3,��
2015/04/30,21:50,0.546,0.338,0.585,0.545,0.479,0.255,0.232,��쐼,7.0,��
2015/04/30,22:00,0.552,0.336,0.589,0.542,0.482,0.255,0.231,��쐼,6.5,��
2015/04/30,22:10,0.549,0.337,0.586,0.547,0.477,0.256,0.230,��쐼,5.8,��
2015/04/30,22:20,0.550,0.336,0.590,0.544,0.483,0.256,0.230,�쐼,5.1,��
2015/04/30,22:30,0.551,0.336,0.587,0.548,0.478,0.256,0.231,�쐼,6.3,��
2015/04/30,22:40,0.550,0.337,0.591,0.542,0.483,0.257,0.231,��쐼,5.7,��
2015/04/30,22:50,0.551,0.336,0.586,0.550,0.478,0.255,0.231,��쐼,6.4,��
2015/04/30,23:00,0.547,0.337,0.593,0.543,0.483,0.256,0.231,��쐼,6.4,��
2015/04/30,23:10,0.551,0.336,0.587,0.545,0.479,0.255,0.232,��쐼,6.2,��
2015/04/30,23:20,0.547,0.337,0.588,0.546,0.482,0.256,0.230,�쐼,6.7,��
2015/04/30,23:30,0.551,0.337,0.588,0.544,0.480,0.257,0.230,�쐼,5.8,��
2015/04/30,23:40,0.547,0.335,0.587,0.546,0.478,0.255,0.230,�쐼,5.3,��
2015/04/30,23:50,0.550,0.339,0.589,0.545,0.480,0.256,0.231,�쐼,5.0,��
